Showing default

NEMO-HD, 46277

Orbit data source: Space-Track

NEMO-HD, 46277 is a payload satellite owned by Space-SI (SI) in SSO that was launched on Thu, 03 Sep 2020 UTC via a VEGA launch vehicle from the French Guiana (FRGUI). Payload-class satellites include a variety of spacecraft equipped with specific instruments for various scientific and technological missions. These include communications satellites like Starlink; space stations such as the ISS; scientific satellites like the Hubble; Earth observation satellites from companies like Planet Labs, Umbra, and HawkEye 360; GPS; miniature CubeSats for education and research; and military/defense satellites.

Loading next visibility...
Identifier
46277, 2020-061F
Orbit
SSO
Country
Flag of SISI / SVN
Related business
Manufacturer
UTIAS-SFL
Mission
Operational Amateur Imaging
Bus & Motor
NEMO-HD, Unknown motor
Mass
65 kg wet, 65 kg dry
Launch date (UTC)
2020-09-03 (5 years ago)
Launch vehicle
VEGA
Launch site
French Guiana (FRGUI)
Object type
Payload
Rocket body
Debris
Shape & HBR
Oct Cyl, Unknown HBR
Radar Cross Section
0.165 m², Medium (>0.1 m² and < 1m²)

Expand to show TLE details & history
Last TLE update: 10 hours ago

TLE from 10 hours ago
0 NEMO-HD
1 46277U 20061F   26062.19719213  .00012701  00000-0  29658-3 0  9998
2 46277  97.2061 125.3203 0002561  86.1174 274.0367 15.42323565305632
Epoch: 2026-03-03T04:43Z
TLE epoch observation values (Epoch: 2026-03-03T04:43:57.400Z)
Latitude
0.00005°
Longitude
-106.64858°
Altitude
442.257 km
Speed
7.647 km/s
True Right ascension
08h 21m 16s
True Declination
0° 00' 00"
Sunlit
Object was in full shadow at epoch
Visualization orbit readout
Latitude
Unknown
Longitude
Unknown
Altitude
Unknown
Speed
Unknown
Apparent Right ascension
Unknown
Apparent Declination
Unknown
Sunlit
N/A
Visualization observer readout
Local Sidereal Time
18:03:13
Azimuth
Unknown
Elevation
Unknown
Doppler factor
Unknown
Orbital elements
Apogee altitude
437.926 km
Perigee altitude
434.436 km
Semi-major axis
6,814.318 km
Eccentricity
0.00026
Inclination
97.2061°
RAAN
125.3203°
Arg. of periapsis
86.1174°
True anomaly
274.00743°
Mean anomaly
274.0367°
Eccentric anomaly
274.02206°
Mean motion
3.85842 °/min
Orbital period
93.3 mins
BSTAR
0.00029658
Loading maneuver chart data...
Computing Atmospheric mass density...
Loading historical data...
Loading historical data...
Loading historical data...
Loading historical data...
Loading historical data...
Loading historical data...
Loading historical data...

Documentation

Showing up to 5 results
|